Location: Doorco Farms
(44.7264°N, 87.6189°W)
Time: 05:44:41
(UTC+00:00)

Daily predictions for brighter satellites

Satellite Brightness Start Highest point End
(mag) Time Altitude Azimuth Time Altitude Azimuth Time Altitude Azimuth
Lacrosse 5 rocket 3.4 00:02:16 10° NW 00:04:02 13° N 00:04:20 13° N
COSMO-SKYMED 1 2.4 00:04:34 49° ENE 00:05:15 56° E 00:09:17 10° S
NOSS 2-3 (E) 3.0 00:02:24 10° SW 00:06:04 87° SE 00:06:40 61° NE
Cosmos 2263 Rocket 2.2 00:01:20 10° NNW 00:06:55 56° ENE 00:10:29 22° SE
NOSS 2-3 (D) 3.0 00:04:09 10° SW 00:07:52 84° SE 00:08:20 66° NE
Resurs 1-3 3.4 00:03:56 10° SSE 00:08:11 64° ENE 00:12:26 10° N
Cosmos 1461 4.1 00:05:34 10° WSW 00:09:08 34° NW 00:10:53 23° N
Cosmos 1538 Rocket 3.9 00:09:38 10° NNW 00:14:54 64° ENE 00:18:33 20° SE
Cosmos 1553 Rocket 4.0 00:12:54 10° SSE 00:18:46 51° E 00:21:02 35° NE
Cosmos 2227 Rocket 2.4 00:14:32 10° NNW 00:20:10 70° WSW 00:25:46 10° SSE
Cosmos 1726 Rocket 4.4 00:18:59 10° SSW 00:23:31 53° WNW 00:27:43 12° N
NOSS 3-2 (C) 4.3 00:24:57 10° WSW 00:29:43 37° NW 00:32:42 23° NNE
Meteor 2-2 Rocket 4.1 00:24:57 10° S 00:30:34 72° E 00:32:13 46° NNE
SKYMED 2 4.3 00:28:27 20° N 00:31:11 50° WNW 00:35:23 10° SSW
SL-19 R/B 4.1 00:26:14 10° SSE 00:31:34 87° WSW 00:37:12 10° NNW
Cosmos 1697 Rocket 3.6 00:28:49 10° SW 00:34:08 44° WNW 00:37:41 20° N
Spot 4 Rocket 4.3 00:29:46 10° S 00:34:51 68° WSW 00:39:58 10° NNW
YAOGAN 1 2.9 00:32:01 10° S 00:36:13 61° W 00:40:26 10° NNW
Cosmos 1244 Rocket 4.4 00:35:33 10° N 00:41:53 87° E 00:48:05 10° S
IRAS Rocket 4.3 00:37:56 10° S 00:43:24 72° WSW 00:48:54 10° NNW
Cosmos 1898 Rocket 3.4 00:39:31 10° SSW 00:44:15 75° S 00:44:15 75° S
Cosmos-2242 3.9 00:47:24 10° SSW 00:50:38 45° SW 00:50:38 45° SW
Gbstr 26 Del rocket 4.3 00:48:19 10° W 00:50:47 31° WNW 00:50:47 31° WNW
BREEZE-M DEB (TANK) 3.8 00:51:06 10° WNW 00:55:22 89° SSW 00:58:34 46° ESE
SL-08 R/B 4.5 00:53:17 10° N 00:59:38 83° W 01:05:58 10° S
Cosmos 2082 4.4 01:00:42 10° NNW 01:04:38 46° NNW 01:04:38 46° NNW
Aureole 1 Rocket 4.3 01:05:12 10° SW 01:09:04 42° WNW 01:09:04 42° WNW
USA 238 DEB 4.2 01:23:49 10° WSW 01:29:44 48° NW 01:29:47 48° NW
USA 238 4.2 01:23:54 10° WSW 01:29:51 48° NW 01:29:52 48° NW
USA 215 4.1 01:32:12 41° NNW 01:32:12 41° NNW 01:36:39 10° NW
Cosmos 2219 4.2 01:25:01 10° NW 01:29:28 44° WNW 01:29:28 44° WNW
Cosmos 1980 Rocket 3.6 01:31:57 10° WSW 01:36:57 32° NW 01:36:57 32° NW
Cosmos 2263 Rocket 4.2 01:46:00 10° NW 01:50:24 24° WSW 01:52:20 20° SW
CZ-3 R/B 4.4 09:25:11 42° SSW 09:25:45 42° SSW 09:37:08 10° SE
Aureole 1 Rocket 4.5 09:54:50 68° NE 09:55:05 69° ENE 10:02:33 10° SSE
COSMOS 2406 4.3 10:01:54 33° SE 10:03:28 41° ESE 10:08:45 10° NE
SL-16 R/B 3.7 10:06:41 28° NNE 10:08:11 31° NE 10:13:11 10° ESE
Cosmos 2082 Rocket 3.3 10:10:40 35° NNE 10:10:40 35° NNE 10:13:50 10° NNE
USA 59 Rocket 2.0 10:11:24 26° SE 10:11:24 26° SE 10:13:45 10° SE
Cosmos 1980 Rocket 4.0 10:32:10 18° S 10:32:10 18° S 10:33:38 10° S
Cosmos 2180 Rocket 4.4 10:33:48 73° WSW 10:33:48 73° WSW 10:39:51 10° S
USA 234 4.2 10:31:46 10° NE 10:37:22 31° N 10:37:58 31° NNW
Cosmos 2369 3.8 10:39:09 59° SSW 10:39:09 59° SSW 10:43:54 10° SSE
FengYun 1-2 T 4.3 10:33:10 10° NNE 10:38:51 78° ESE 10:44:29 10° S
NOSS 2-1 (C) 4.4 10:40:19 43° SSE 10:40:19 43° SSE 10:43:46 10° SE
Cosmos 841 Rocket 3.4 10:40:49 76° N 10:40:49 76° N 10:45:41 10° NNE
SJ-11-01 4.3 10:35:57 10° NNE 10:40:40 76° ESE 10:45:20 10° S
BREEZE-M DEB (TANK) 4.2 10:44:56 52° WSW 10:45:42 56° SW 10:49:36 10° SE
Cosmos 1892 Rocket 4.0 10:45:55 10° S 10:50:12 59° E 10:54:33 10° NNE
COSMO-SKYMED 1 3.3 10:51:47 10° SE 10:55:44 47° ENE 10:57:58 23° N
COSMOS 2455 3.0 10:59:43 49° WSW 11:00:01 50° WSW 11:05:46 10° S
Cosmos 2360 Rocket 3.3 10:56:30 15° N 11:00:43 40° NE 11:05:57 10° SE
Cosmos 2333 Rocket 2.7 10:59:10 22° NNW 11:02:55 59° ENE 11:08:35 10° SE
NOSS 3-1 (C) 4.0 11:01:55 35° NW 11:05:31 72° WSW 11:14:28 10° SSE
Cosmos 1898 Rocket 3.9 11:10:27 43° WSW 11:10:27 43° WSW 11:15:05 10° S
Cosmos 1484 Rocket 4.4 11:09:06 10° NNE 11:12:10 30° E 11:15:10 10° SSE
Cosmos 489 Rocket 4.5 11:06:46 13° SW 11:12:19 57° WNW 11:18:31 10° NNE
Cosmos 1092 Rocket 4.1 11:06:53 10° S 11:13:09 79° E 11:19:24 10° N
Cosmos 1428 Rocket 4.4 11:08:30 10° SSW 11:14:39 62° WNW 11:20:53 10° N
Nadezhda 4 Rocket 4.1 11:09:30 10° SSW 11:15:37 51° WNW 11:21:44 10° N
IRS-1D 3.3 11:11:02 10° N 11:16:02 73° WNW 11:21:07 10° SSW
SL-24 R/B 4.3 11:11:50 10° N 11:17:10 81° WNW 11:21:46 10° SSW
Cosmos 2219 Rocket 3.6 11:12:51 10° N 11:17:58 34° NE 11:23:02 10° ESE
Cosmos 2322 Rocket 2.5 11:19:41 15° NNW 11:24:26 66° ENE 11:30:04 10° SE
Cosmos 2058 Rocket 3.0 11:23:27 13° N 11:27:28 90° NNE 11:31:52 10° S
SKYMED 2 3.7 11:23:21 10° S 11:27:34 51° W 11:29:04 35° NW
Helios 1A Rocket 2.2 11:25:44 10° S 11:29:04 80° WSW 11:30:06 41° NNW
ATLAS 3B R/B 4.4 11:23:21 12° NNW 11:29:32 29° NNE 11:36:01 10° E
Cosmos 2195 Rocket 4.5 11:23:55 10° SSW 11:30:05 59° WNW 11:36:21 10° N
Okean 1 3.1 11:28:27 18° N 11:30:58 76° E 11:34:31 10° SSE
Cosmos 1937 Rocket 3.9 11:29:56 34° WNW 11:31:00 38° WSW 11:35:42 10° S
Meteor 2-20 4.4 11:26:48 10° NNW 11:32:51 67° W 11:38:52 10° S
Meteor 2-3 Rocket 4.0 11:36:53 10° SW 11:42:20 44° WNW 11:47:46 10° N
CZ-4 R/B 4.0 11:39:44 10° N 11:44:07 43° WNW 11:48:27 10° SW
SL-4 R/B 2.1 11:43:26 30° NNW 11:44:30 42° NNE 11:47:33 10° E
Meteor 1-26 Rocket 4.2 11:40:16 10° NNW 11:45:46 66° W 11:51:25 10° S
COSMOS 2406 3.8 11:44:05 17° WSW 11:47:48 34° NW 11:52:58 10° N
IRIDIUM 104 4.4 11:46:48 10° S 11:52:00 83° E 11:57:16 10° N
SL-16 R/B 2.5 11:48:33 18° NW 11:52:25 45° WSW 11:57:45 10° S
Cosmos 405 Rocket 2.2 11:49:24 10° S 11:52:38 86° ESE 11:55:56 10° N
Cosmos 2082 Rocket 3.5 11:52:33 19° NW 11:52:59 19° NW 11:56:57 10° N
Cosmos 2151 4.1 11:50:51 10° SSE 11:54:43 44° E 11:58:38 10° NNE
